TimeEST,TemperatureF,Dew PointF,Humidity,Sea Level PressureIn,VisibilityMPH,Wind Direction,Wind SpeedMPH,Gust SpeedMPH,PrecipitationIn,Events,Conditions,WindDirDegrees,DateUTC
12:34 AM,41.0,39.2,93,30.02,1.8,Calm,Calm,-,N/A,,Overcast,0,2012-12-08 05:34:00
12:53 AM,42.1,41.0,96,30.02,1.5,Calm,Calm,-,N/A,,Overcast,0,2012-12-08 05:53:00
1:32 AM,42.8,41.0,93,30.02,0.8,Calm,Calm,-,N/A,,Overcast,0,2012-12-08 06:32:00
1:43 AM,42.8,41.0,93,30.01,1.0,Calm,Calm,-,0.00,Rain,Light Rain,0,2012-12-08 06:43:00
1:53 AM,42.1,41.0,96,30.02,1.0,Calm,Calm,-,0.00,Rain,Light Rain,0,2012-12-08 06:53:00
2:51 AM,42.8,42.8,100,30.00,0.8,Calm,Calm,-,0.07,Rain,Rain,0,2012-12-08 07:51:00
2:53 AM,43.0,42.1,97,30.00,0.8,Calm,Calm,-,0.07,Rain,Rain,0,2012-12-08 07:53:00
3:16 AM,42.8,41.0,93,29.99,0.5,Calm,Calm,-,0.02,Fog-Rain,Light Rain,0,2012-12-08 08:16:00
3:34 AM,42.8,42.8,100,29.98,0.8,Calm,Calm,-,0.03,Rain,Light Rain,0,2012-12-08 08:34:00
3:50 AM,42.8,42.8,100,29.98,0.8,Calm,Calm,-,0.04,Rain,Light Rain,0,2012-12-08 08:50:00
3:53 AM,43.0,42.1,97,29.98,0.5,Calm,Calm,-,0.04,Fog-Rain,Light Rain,0,2012-12-08 08:53:00
4:15 AM,42.8,42.8,100,29.97,0.8,NNW,3.5,-,0.01,Rain,Light Rain,330,2012-12-08 09:15:00
4:23 AM,42.8,42.8,100,29.98,1.2,Calm,Calm,-,0.01,Rain,Light Rain,0,2012-12-08 09:23:00
4:35 AM,42.8,42.8,100,29.98,1.2,Calm,Calm,-,0.02,Rain,Rain,0,2012-12-08 09:35:00
4:53 AM,43.0,42.1,97,29.97,1.5,Calm,Calm,-,0.03,Rain,Light Rain,0,2012-12-08 09:53:00
5:25 AM,44.6,42.8,93,29.96,2.5,Calm,Calm,-,0.00,,Overcast,0,2012-12-08 10:25:00
5:59 AM,44.6,42.8,93,29.94,3.0,Calm,Calm,-,N/A,,Overcast,0,2012-12-08 10:59:00
6:53 AM,43.0,42.1,97,29.94,2.0,NNE,3.5,-,0.05,Rain,Heavy Rain,30,2012-12-08 11:53:00
7:00 AM,42.8,42.8,100,29.94,2.5,Calm,Calm,-,0.02,Rain,Rain,0,2012-12-08 12:00:00
7:15 AM,44.6,42.8,93,29.93,3.0,Calm,Calm,-,0.02,Rain,Light Rain,0,2012-12-08 12:15:00
7:26 AM,44.6,42.8,93,29.94,2.5,Calm,Calm,-,0.02,Rain,Light Rain,0,2012-12-08 12:26:00
7:36 AM,42.8,42.8,100,29.94,4.0,NNW,4.6,-,0.02,Rain,Light Rain,340,2012-12-08 12:36:00
7:48 AM,44.6,42.8,93,29.93,2.0,North,3.5,-,0.02,,Overcast,10,2012-12-08 12:48:00
7:53 AM,44.1,42.1,93,29.94,2.0,NNW,3.5,-,0.02,Rain,Light Rain,340,2012-12-08 12:53:00
8:03 AM,44.6,42.8,93,29.93,2.5,NNW,3.5,-,0.00,Rain,Light Rain,340,2012-12-08 13:03:00
8:27 AM,42.8,42.8,100,29.93,1.5,Calm,Calm,-,0.00,,Overcast,0,2012-12-08 13:27:00
8:53 AM,43.0,42.1,97,29.93,1.5,North,4.6,-,0.00,,Overcast,350,2012-12-08 13:53:00
9:09 AM,42.8,42.8,100,29.92,2.5,North,4.6,-,N/A,,Overcast,360,2012-12-08 14:09:00
9:18 AM,44.6,42.8,93,29.92,4.0,NNE,4.6,-,N/A,,Overcast,20,2012-12-08 14:18:00
9:27 AM,44.6,42.8,93,29.92,7.0,North,3.5,-,N/A,,Overcast,10,2012-12-08 14:27:00
9:53 AM,44.1,42.1,93,29.93,10.0,North,4.6,-,N/A,,Overcast,360,2012-12-08 14:53:00
10:11 AM,44.6,42.8,93,29.93,8.0,NW,5.8,-,N/A,,Overcast,320,2012-12-08 15:11:00
10:28 AM,42.8,42.8,100,29.93,2.0,NW,4.6,-,N/A,,Overcast,320,2012-12-08 15:28:00
10:35 AM,42.8,42.8,100,29.92,1.2,NW,4.6,-,N/A,,Overcast,320,2012-12-08 15:35:00
10:53 AM,43.0,42.1,97,29.91,1.2,Calm,Calm,-,N/A,,Overcast,0,2012-12-08 15:53:00
11:21 AM,44.6,42.8,93,29.91,2.0,NW,3.5,-,N/A,,Overcast,320,2012-12-08 16:21:00
11:53 AM,45.0,43.0,93,29.89,3.0,Calm,Calm,-,N/A,,Overcast,0,2012-12-08 16:53:00
12:53 PM,45.0,43.0,93,29.88,8.0,ENE,3.5,-,N/A,,Overcast,60,2012-12-08 17:53:00
1:53 PM,45.0,43.0,93,29.87,7.0,Calm,Calm,-,N/A,,Overcast,0,2012-12-08 18:53:00
2:44 PM,46.4,42.8,87,29.89,7.0,Calm,Calm,-,N/A,,Overcast,0,2012-12-08 19:44:00
2:53 PM,46.0,44.1,93,29.89,7.0,Calm,Calm,-,N/A,,Overcast,0,2012-12-08 19:53:00
3:53 PM,46.0,44.1,93,29.89,6.0,Calm,Calm,-,N/A,,Overcast,0,2012-12-08 20:53:00
4:00 PM,46.4,42.8,87,29.89,6.0,Calm,Calm,-,N/A,,Overcast,0,2012-12-08 21:00:00
4:53 PM,46.0,44.1,93,29.90,6.0,Calm,Calm,-,N/A,,Overcast,0,2012-12-08 21:53:00
5:53 PM,46.0,44.1,93,29.91,5.0,South,5.8,-,N/A,,Overcast,180,2012-12-08 22:53:00
6:53 PM,46.0,44.1,93,29.93,4.0,Calm,Calm,-,N/A,,Overcast,0,2012-12-08 23:53:00
7:49 PM,44.6,44.6,100,29.93,3.0,South,3.5,-,N/A,,Mostly Cloudy,190,2012-12-09 00:49:00
7:53 PM,46.0,44.1,93,29.94,3.0,South,3.5,-,N/A,,Mostly Cloudy,170,2012-12-09 00:53:00
8:00 PM,46.4,44.6,93,29.93,3.0,South,4.6,-,N/A,,Scattered Clouds,170,2012-12-09 01:00:00
8:21 PM,44.6,44.6,100,29.94,2.0,Calm,Calm,-,N/A,,Mostly Cloudy,0,2012-12-09 01:21:00
8:28 PM,44.6,44.6,100,29.94,1.2,Calm,Calm,-,N/A,,Mostly Cloudy,0,2012-12-09 01:28:00
8:51 PM,44.6,44.6,100,29.94,2.0,Calm,Calm,-,N/A,,Overcast,0,2012-12-09 01:51:00
8:53 PM,45.0,44.1,97,29.95,2.0,Calm,Calm,-,N/A,,Overcast,0,2012-12-09 01:53:00
9:04 PM,44.6,42.8,93,29.95,1.0,Calm,Calm,-,N/A,,Overcast,0,2012-12-09 02:04:00
9:18 PM,42.8,42.8,100,29.96,0.2,Calm,Calm,-,N/A,Fog,Fog,0,2012-12-09 02:18:00
9:53 PM,43.0,42.1,97,29.96,0.2,Calm,Calm,-,N/A,Fog,Fog,0,2012-12-09 02:53:00
10:17 PM,42.8,42.8,100,29.97,1.8,Calm,Calm,-,N/A,,Overcast,0,2012-12-09 03:17:00
10:29 PM,42.8,42.8,100,29.97,2.5,Calm,Calm,-,N/A,,Overcast,0,2012-12-09 03:29:00
10:37 PM,44.6,42.8,93,29.97,2.5,Calm,Calm,-,N/A,,Overcast,0,2012-12-09 03:37:00
11:13 PM,44.6,42.8,93,29.98,2.0,Calm,Calm,-,N/A,,Overcast,0,2012-12-09 04:13:00
11:53 PM,45.0,43.0,93,29.99,2.0,SSE,4.6,-,N/A,,Overcast,150,2012-12-09 04:53:00